Relay 1

operational
NORAD ID: 503 Int'l Des: 1962 B UP Owner: GSFC Country: US
MEOELLIPTICALHEO_ELLIPTICAL

Über Relay 1

Beschreibung wird geladen...

Live-Position

3D-Globus wird geladen...

Nächste Überflüge

Höhenverlauf

Altitude vs Time

uPlot chart will show altitude changes over time

Zweizeiliger Elementsatz

1 00503U 62068A 26062.34613928 -.00000033 00000-0 00000-0 0 9999
2 00503 47.4927 200.6459 2841524 90.1753 319.5282 7.78170656797246
Epoch: 3. März 2026 • Age: 38 hours

Aktueller Status

Höhe 6739.1 km
Geschwindigkeit 4.87 km/s
Subsatellitenpunkt -40.42°S, 65.03°E
Typ other

Große Konstellationen

Loading constellations...